Regional Weather Roundup
Issued by NWS

Home | Current Version | Previous Version | Graphics & Text | Print | Product List | Glossary Off
Versions: 1 2 3 4 5 6 7 8 9 10 11 12 13 14 15 16 17 18 19 20 21 22 23 24 25 26 27 28 29 30 31 32 33 34 35 36 37 38 39 40 41 42 43 44 45 46 47 48 49 50

000
ASUS43 KTOP 200959
RWRKS

WEATHER ROUNDUP FOR KANSAS
NATIONAL WEATHER SERVICE GOODLAND KS
400 AM CST FRI JAN 20 2017

NOTE:  "FAIR" INDICATES FEW OR NO CLOUDS BELOW 12,000 FEET WITH NO
SIGNIFICANT WEATHER AND/OR OBSTRUCTIONS TO VISIBILITY.

KSZ001>006-013>018-027>032-041>047-201100-
NORTHWEST KANSAS

CITY           SKY/WX    TMP DP  RH WIND       PRES   REMARKS
GOODLAND       FOG       29  29 100 SE5       29.46F VSB 1/4
HAYS           FOG       41  40  96 S3        29.53S VSB 1/4
HILL CITY      FOG       39  39 100 CALM      29.53S VSB 1/4
RUSSELL        FOG       41  41 100 S6        29.51F VSB 1/2
$$

KSZ061>065-074>080-084>089-201100-
SOUTHWEST KANSAS

CITY           SKY/WX    TMP DP  RH WIND       PRES   REMARKS
DODGE CITY     CLOUDY    35  33  92 W6        29.52R FOG
ELKHART          N/A     31  27  86 W6          N/A
GARDEN CITY    CLOUDY    36  34  92 CALM      29.51S
GREAT BEND     LGT RAIN  42  42 100 NE8       29.51F VSB 1/4
LIBERAL        CLOUDY    37  34  87 N7        29.47F
$$

KSZ066>073-081>083-090>101-201100-
SOUTHEAST KANSAS

CITY           SKY/WX    TMP DP  RH WIND       PRES   REMARKS
CHANUTE        CLOUDY    49  47  93 SE8       29.57S FOG
COFFEYVILLE    CLOUDY    48  47  96 E6        29.55F FOG
HUTCHINSON     FOG       43  42  97 E3        29.52F VSB 1/4
MEDICINE LODGE   N/A     34  33  96 NE5       29.51R
NEWTON         FOG       43  43 100 E5        29.53F VSB 1/2
PARSONS        CLOUDY    49  47  93 SE3       29.56F FOG
WICHITA INTL   FOG       46  45  96 E6        29.52F VSB 3/4
WICHITA JABRA  FOG       44  44 100 CALM      29.52F VSB 1/2
WINFIELD       CLOUDY    47  47 100 SE5       29.54R
$$

KSZ007>012-019>026-033>040-048>060-102>105-201100-
NORTHEAST KANSAS

CITY           SKY/WX    TMP DP  RH WIND       PRES   REMARKS
CONCORDIA      FOG       39  39 100 E3        29.53S VSB 1/4
EMPORIA        CLOUDY    44  44 100 SE3       29.54F FOG
LAWRENCE       FOG       44  44 100 E5        29.57R VSB 1/2
MANHATTAN      FOG       44  44 100 CALM      29.54F VSB 1/4
OLATHE IND     FOG       45  45 100 E6        29.57F VSB 1/2
OLATHE EXE     FOG       45  45 100 SE3       29.57S VSB 3/4
SALINA           N/A    N/A N/A N/A MISG        N/A
TOPEKA BILLARD FOG       45  43  93 E3        29.56S VSB 1/4
TOPEKA FORBES  FOG       46  44  93 E5        29.55F VSB 1/2
$$




USA.gov is the U.S. government's official web portal to all federal, state and local government web resources and services.